Regional Weather Roundup
Issued by NWS

Home | Current Version | Previous Version | Graphics & Text | Print | Product List | Glossary On
Versions: 1 2 3 4 5 6 7 8 9 10 11 12 13 14 15 16 17 18 19 20 21 22 23 24 25 26 27 28 29 30 31 32 33 34 35 36 37 38 39 40 41 42 43 44 45 46 47 48 49 50
000
ASUS43 KDMX 222307
RWRIA

WEATHER ROUNDUP FOR IOWA
NATIONAL WEATHER SERVICE DES MOINES IA
600 PM CDT TUE JUL 22 2014

NOTE: "FAIR" INDICATES FEW OR NO CLOUDS BELOW 12,000 FEET WITH NO
SIGNIFICANT WEATHER AND/OR OBSTRUCTIONS TO VISIBILITY.

* - THESE STATIONS ARE NOT NWS STATIONS...THUS NOT UNDER NWS
QUALITY CONTROL.  THEY ALSO DO NOT REPORT WEATHER SUCH
AS PRECIPITATION OR FOG.

IAZ001>003-012>014-020>022-031>034-043>046-230000-
   NORTHWEST IOWA

CITY           SKY/WX    TMP DP  RH WIND       PRES   REMARKS
CARROLL *      SUNNY     81  70  69 N10       30.08R HX  84
CHEROKEE *     PTSUNNY   82  64  54 N14       30.11R HX  84
DENISON *      SUNNY     81  70  69 N8        30.10R HX  84
LE MARS *      SUNNY     82  64  54 N8G18     30.14R HX  84
ORANGE CITY *  SUNNY     82  61  47 N13       30.14S HX  83
SHELDON *      SUNNY     81  63  54 N13       30.14S HX  82
SIOUX CITY     PTSUNNY   85  68  56 N10G20    30.12R HX  88
SPENCER        MOSUNNY   83  62  49 N16       30.13S HX  84
STORM LAKE *   SUNNY     81  68  65 N12       30.14R HX  83
$$

IAZ055>058-069>071-079>083-090>094-230000-
   SOUTHWEST IOWA

CITY           SKY/WX    TMP DP  RH WIND       PRES   REMARKS
ATLANTIC *     SUNNY     84  72  65 NE9G18    30.06S HX  89
AUDUBON *      SUNNY     84  75  74 N10       30.09S HX  92
CLARINDA *     SUNNY     88  79  74 N15       30.06R HX 102
COUNCIL BLFS * SUNNY     84  75  74 E7        30.05F HX  92
CRESTON *      SUNNY     86  72  62 N17G23    30.07R HX  92
HARLAN  *      SUNNY     84  73  70 N12       30.12R HX  91
LAMONI         MOSUNNY   91  80  70 N13G18    30.03R HX 109
RED OAK *      SUNNY     88  77  70 N12       30.06S HX 100
SHENANDOAH *   SUNNY     88  77  70 N12       30.05S HX 100
$$

IAZ047>049-059>061-072>074-084-230000-
   CENTRAL IOWA

CITY           SKY/WX    TMP DP  RH WIND       PRES   REMARKS
AMES           MOSUNNY   86  69  56 NW12      30.05R HX  90
ANKENY *       SUNNY     86  72  62 N13G18    30.04R HX  92
CHARITON *     SUNNY     88  81  79 NW15      30.02R HX 105
DES MOINES     PTSUNNY   88  71  57 N17       30.03R HX  94
GRINNELL*      MOSUNNY   84  73  70 NW12      30.03R HX  91
KNOXVILLE *    SUNNY     88  77  70 NW15      30.01R HX 100
MARSHALLTOWN   PTSUNNY   84  72  67 NW10      30.03R HX  89
PELLA *        MOSUNNY   88  77  70 NW12      30.02R HX 100
PERRY *          N/A     84  70  61 N9        30.06F HX  88
$$

IAZ004>006-015-016-023>025-035-036-230000-
   NORTH CENTRAL IOWA

CITY           SKY/WX    TMP DP  RH WIND       PRES   REMARKS
ALGONA *       SUNNY     81  64  57 N14       30.10S HX  82
CLARION *      SUNNY     82  68  61 N9G17     30.07S HX  85
ESTHERVILLE    MOSUNNY   81  62  52 N14       30.12S HX  82
FORT DODGE *   SUNNY     82  66  57 N12       30.08F HX  85
MASON CITY     SUNNY     83  66  56 NW21      30.09R HX  85
FOREST CITY *  SUNNY     81  63  54 NE17      30.09R HX  82
IOWA FALLS *     N/A     84  68  58 NW13      30.07R HX  87
$$

IAZ007>011-017>019-026>030-037>042-050>054-066-230000-
   NORTHEAST IOWA

CITY           SKY/WX    TMP DP  RH WIND       PRES   REMARKS
CEDAR RAPIDS   PTSUNNY   88  77  69 NW14      29.97F HX 100
CHARLES CITY * SUNNY     82  68  61 NW12G18   30.06R HX  85
DECORAH *      SUNNY     82  68  61 NW13G21   30.02R HX  85
DUBUQUE        MOSUNNY   88  75  65 W7        29.98R HX  97
MONTICELLO *   PTSUNNY   90  79  70 W9G16     29.97R HX 105
OELWEIN *      SUNNY     86  72  62 N13       30.02R HX  92
WATERLOO       MOSUNNY   87  68  52 NW16      30.00R HX  90
$$

IAZ064-065-067-068-078-230000-
   EAST CENTRAL IOWA

CITY           SKY/WX    TMP DP  RH WIND       PRES   REMARKS
DAVENPORT      PTSUNNY   86  78  77 W8        29.97S HX  98
IOWA CITY      PTSUNNY   89  78  70 W10       29.98S HX 103
MT. PLEASANT * PTSUNNY   86  75  70 CALM      29.99S HX  95
MUSCATINE *    PTSUNNY   86  79  79 SW10      29.98R HX  99
QUAD CITIES    CLOUDY    85  78  80 SW9       29.95F HX  96
$$

IAZ062-063-075>077-085>089-095>099-230000-
   SOUTHEAST IOWA

CITY           SKY/WX    TMP DP  RH WIND       PRES   REMARKS
BURLINGTON     CLOUDY    84  78  82 S8        29.99R HX  95
FAIRFIELD *    PTSUNNY   86  79  79 NW6       30.00R HX  99
FORT MADISON * PTSUNNY   88  81  79 CALM      30.00R HX 105
KEOKUK *       MOSUNNY   86  79  79 E3        29.98S HX  99
OSKALOOSA *      N/A     90  79  70 N10       29.99S HX 105
CENTERVILLE *  MOSUNNY   90  81  74 NW5       30.01S HX 108
OTTUMWA        MOSUNNY   88  79  74 N9        29.98R HX 103
WASHINGTON *   MOSUNNY   88  81  79 W7G14     29.99S HX 105
$$

ABBREVIATIONS USED IN REMARKS
   TC - TEMPERATURES IN CELSIUS
  WCI - WIND CHILL INDEX
   HX - HEAT INDEX
  VSB - VISIBILITY
$$




USA.gov is the U.S. government's official web portal to all federal, state and local government web resources and services.